Location: Unspecified
(0.0000°N, 0.0000°E)
Time: 01:44:32
(UTC+00:00)

Tiros 1 despin weight - Pass Details

Date: 01 October 2020
Orbit: 594 x 641 km, 48.2° (Epoch: 25 October)

Event Time Altitude Azimuth Distance (km) Brightness Sun altitude
Rises 18:14:55 0° 349° (NNW) 2,916 ? -6.4°
Reaches altitude 10° 18:17:55 10° 9° (N) 2,015 ? -7.1°
Maximum altitude 18:20:59 17° 50° (NE) 1,591 ? -7.9°
Enters shadow 18:23:54 11° 90° (E) 1,984 ? -8.6°
